| time (UTC) | temp C | wind direction | speed KPH | gust KPH | rain 1hr cm | rain 24hr cm | rain mn cm | humidity % | barometer mb |
| 20260508082926 | 11 | 289 | 0.0 | 0.0 | 0.00 | 0.00 | 0.00 | 92 | 1016.1 |
| 20260508082424 | 11 | 286 | 0.0 | 0.0 | 0.00 | 0.00 | 0.00 | 92 | 1016.3 |
| 20260508081922 | 11 | 290 | 0.0 | 0.0 | 0.00 | 0.00 | 0.00 | 92 | 1016.3 |
| 20260508081418 | 11 | 285 | 0.0 | 0.0 | 0.00 | 0.00 | 0.00 | 92 | 1016.4 |
| 20260508080915 | 11 | 291 | 0.0 | 0.0 | 0.00 | 0.00 | 0.00 | 91 | 1016.3 |
| 20260508080413 | 11 | 275 | 0.0 | 0.0 | 0.00 | 0.00 | 0.00 | 91 | 1016.3 |
| 20260508075909 | 11 | 279 | 0.0 | 0.0 | 0.00 | 0.00 | 0.00 | 91 | 1016.3 |
| 20260508075407 | 11 | 281 | 0.0 | 0.0 | 0.00 | 0.00 | 0.00 | 91 | 1016.2 |
| 20260508074904 | 11 | 290 | 0.0 | 0.0 | 0.00 | 0.00 | 0.00 | 90 | 1016.2 |
| 20260508074401 | 11 | 280 | 0.0 | 0.0 | 0.00 | 0.00 | 0.00 | 90 | 1016.4 |
| 20260508073858 | 11 | 281 | 0.0 | 0.0 | 0.00 | 0.00 | 0.00 | 90 | 1016.3 |
| 20260508073356 | 11 | 279 | 0.0 | 0.0 | 0.00 | 0.00 | 0.00 | 90 | 1016.4 |
| 20260508072852 | 11 | 279 | 0.0 | 0.0 | 0.00 | 0.00 | 0.00 | 90 | 1016.1 |
| 20260508072349 | 11 | 281 | 0.0 | 0.0 | 0.00 | 0.00 | 0.00 | 90 | 1016.5 |
| 20260508071846 | 11 | 281 | 0.0 | 0.0 | 0.00 | 0.00 | 0.00 | 90 | 1016.1 |
| 20260508071345 | 11 | 290 | 0.0 | 0.0 | 0.00 | 0.00 | 0.00 | 89 | 1016.3 |
| 20260508070842 | 11 | 290 | 0.0 | 0.0 | 0.00 | 0.00 | 0.00 | 89 | 1016.2 |
| 20260508070340 | 12 | 286 | 0.0 | 0.0 | 0.00 | 0.00 | 0.00 | 89 | 1016.3 |
| 20260508065837 | 11 | 273 | 0.0 | 0.0 | 0.00 | 0.00 | 0.00 | 89 | 1016.4 |
| 20260508065335 | 11 | 288 | 0.0 | 0.0 | 0.00 | 0.00 | 0.00 | 88 | 1016.5 |
| 20260508064833 | 11 | 287 | 0.0 | 0.0 | 0.00 | 0.00 | 0.00 | 88 | 1016.5 |
| 20260508064330 | 12 | 286 | 0.0 | 0.0 | 0.00 | 0.00 | 0.00 | 88 | 1016.5 |
| 20260508063828 | 12 | 286 | 0.0 | 0.0 | 0.00 | 0.00 | 0.00 | 87 | 1016.2 |
| 20260508063326 | 12 | 282 | 0.0 | 0.0 | 0.00 | 0.00 | 0.00 | 85 | 1016.4 |
| 20260508062822 | 11 | 290 | 0.0 | 0.0 | 0.00 | 0.00 | 0.00 | 83 | 1016.3 |
| 20260508062320 | 12 | 287 | 0.0 | 0.0 | 0.00 | 0.00 | 0.00 | 83 | 1016.5 |
| 20260508061816 | 12 | 288 | 0.0 | 0.0 | 0.00 | 0.00 | 0.00 | 82 | 1016.3 |
| 20260508061314 | 12 | 290 | 0.0 | 0.0 | 0.00 | 0.00 | 0.00 | 82 | 1016.4 |
| 20260508060810 | 12 | 289 | 0.0 | 0.0 | 0.00 | 0.00 | 0.00 | 81 | 1016.5 |
| 20260508060308 | 12 | 287 | 0.0 | 0.0 | 0.00 | 0.00 | 0.00 | 80 | 1016.3 |
| 20260508055803 | 13 | 300 | 0.0 | 0.0 | 0.00 | 0.00 | 0.00 | 79 | 1016.6 |
| 20260508055301 | 13 | 296 | 0.0 | 0.0 | 0.00 | 0.00 | 0.00 | 78 | 1016.7 |
| 20260508054756 | 13 | 286 | 0.0 | 0.0 | 0.00 | 0.00 | 0.00 | 77 | 1016.6 |
| 20260508054255 | 13 | 288 | 0.0 | 0.0 | 0.00 | 0.00 | 0.00 | 76 | 1016.5 |
| 20260508053751 | 13 | 287 | 0.0 | 0.0 | 0.00 | 0.00 | 0.00 | 75 | 1016.6 |
| 20260508053249 | 13 | 286 | 0.0 | 0.0 | 0.00 | 0.00 | 0.00 | 74 | 1016.4 |
| 20260508052746 | 13 | 287 | 0.0 | 0.0 | 0.00 | 0.00 | 0.00 | 75 | 1016.6 |
| 20260508052243 | 13 | 314 | 0.0 | 0.0 | 0.00 | 0.00 | 0.00 | 74 | 1016.5 |
| 20260508051739 | 13 | 339 | 0.0 | 0.0 | 0.00 | 0.00 | 0.00 | 73 | 1016.5 |
| 20260508051235 | 14 | 348 | 0.0 | 0.0 | 0.00 | 0.00 | 0.00 | 73 | 1016.3 |
| 20260508050731 | 14 | 28 | 0.0 | 0.0 | 0.00 | 0.00 | 0.00 | 72 | 1016.4 |
| 20260508050230 | 14 | 26 | 0.0 | 0.0 | 0.00 | 0.00 | 0.00 | 72 | 1016.5 |
| 20260508045724 | 14 | 359 | 0.0 | 0.0 | 0.00 | 0.00 | 0.00 | 72 | 1016.5 |
| 20260508045222 | 14 | 359 | 0.0 | 0.0 | 0.00 | 0.00 | 0.00 | 72 | 1016.6 |
| 20260508044720 | 15 | 340 | 0.0 | 0.0 | 0.00 | 0.00 | 0.00 | 71 | 1016.5 |
| 20260508044216 | 15 | 14 | 0.0 | 0.0 | 0.00 | 0.00 | 0.00 | 71 | 1016.6 |
| 20260508043712 | 15 | 357 | 0.0 | 0.0 | 0.00 | 0.00 | 0.00 | 71 | 1016.6 |
| 20260508043210 | 15 | 34 | 0.0 | 0.0 | 0.00 | 0.00 | 0.00 | 70 | 1016.6 |
| 20260508042706 | 15 | 15 | 0.0 | 0.0 | 0.00 | 0.00 | 0.00 | 70 | 1016.6 |
| 20260508042204 | 15 | 350 | 0.0 | 0.0 | 0.00 | 0.00 | 0.00 | 70 | 1016.7 |
| 20260508041700 | 15 | 17 | 0.0 | 0.0 | 0.00 | 0.00 | 0.00 | 69 | 1016.9 |
| 20260508041157 | 15 | 344 | 0.0 | 0.0 | 0.00 | 0.00 | 0.00 | 69 | 1016.6 |
| 20260508040653 | 15 | 334 | 0.0 | 0.0 | 0.00 | 0.00 | 0.00 | 69 | 1016.7 |
| 20260508040151 | 15 | 343 | 0.0 | 0.0 | 0.00 | 0.00 | 0.00 | 68 | 1016.7 |
| 20260508035648 | 15 | 346 | 1.6 | 1.6 | 0.00 | 0.00 | 0.00 | 68 | 1016.7 |
| 20260508035145 | 15 | 3 | 1.6 | 1.6 | 0.00 | 0.00 | 0.00 | 68 | 1016.5 |
| 20260508034642 | 15 | 7 | 3.2 | 3.2 | 0.00 | 0.00 | 0.00 | 68 | 1016.4 |
| 20260508034139 | 15 | 29 | 4.8 | 4.8 | 0.00 | 0.00 | 0.00 | 67 | 1016.5 |
| 20260508033636 | 15 | 16 | 3.2 | 3.2 | 0.00 | 0.00 | 0.00 | 68 | 1016.4 |
| 20260508033134 | 16 | 345 | 0.0 | 0.0 | 0.00 | 0.00 | 0.00 | 67 | 1016.6 |
| 20260508032630 | 16 | 358 | 1.6 | 1.6 | 0.00 | 0.00 | 0.00 | 66 | 1016.5 |
| 20260508032128 | 16 | 4 | 1.6 | 3.2 | 0.00 | 0.00 | 0.00 | 66 | 1016.7 |
| 20260508031625 | 16 | 357 | 3.2 | 3.2 | 0.00 | 0.00 | 0.00 | 65 | 1016.5 |
| 20260508031121 | 16 | 17 | 3.2 | 4.8 | 0.00 | 0.00 | 0.00 | 64 | 1016.5 |
| 20260508030618 | 16 | 2 | 1.6 | 3.2 | 0.00 | 0.00 | 0.00 | 64 | 1016.6 |
| 20260508030116 | 16 | 298 | 0.0 | 0.0 | 0.00 | 0.00 | 0.00 | 63 | 1016.6 |
| 20260508025612 | 17 | 296 | 0.0 | 1.6 | 0.00 | 0.00 | 0.00 | 62 | 1016.7 |
| 20260508025109 | 17 | 311 | 1.6 | 1.6 | 0.00 | 0.00 | 0.00 | 62 | 1016.6 |
| 20260508024605 | 17 | 289 | 1.6 | 3.2 | 0.00 | 0.00 | 0.00 | 61 | 1016.9 |
| 20260508024102 | 17 | 286 | 0.0 | 0.0 | 0.00 | 0.00 | 0.00 | 62 | 1016.8 |
| 20260508023558 | 17 | 297 | 0.0 | 0.0 | 0.00 | 0.00 | 0.00 | 61 | 1016.8 |
| 20260508023056 | 17 | 293 | 1.6 | 1.6 | 0.00 | 0.00 | 0.00 | 61 | 1016.6 |
| 20260508022551 | 17 | 293 | 0.0 | 1.6 | 0.00 | 0.00 | 0.00 | 61 | 1016.6 |
| 20260508022049 | 17 | 293 | 0.0 | 1.6 | 0.00 | 0.00 | 0.00 | 61 | 1016.9 |
| 20260508021544 | 17 | 284 | 6.4 | 8.0 | 0.00 | 0.00 | 0.00 | 59 | 1016.8 |
| 20260508021040 | 18 | 235 | 1.6 | 3.2 | 0.00 | 0.00 | 0.00 | 58 | 1016.8 |
| 20260508020538 | 17 | 305 | 0.0 | 0.0 | 0.00 | 0.00 | 0.00 | 58 | 1017.0 |
| 20260508020036 | 18 | 292 | 4.8 | 4.8 | 0.00 | 0.00 | 0.00 | 58 | 1017.0 |
| 20260508015533 | 18 | 297 | 0.0 | 0.0 | 0.00 | 0.00 | 0.00 | 57 | 1016.8 |
| 20260508015030 | 17 | 314 | 0.0 | 0.0 | 0.00 | 0.00 | 0.00 | 57 | 1017.0 |
| 20260508014526 | 17 | 197 | 3.2 | 4.8 | 0.00 | 0.00 | 0.00 | 57 | 1016.8 |
| 20260508014022 | 17 | 229 | 3.2 | 3.2 | 0.00 | 0.00 | 0.00 | 58 | 1016.8 |
| 20260508013519 | 17 | 317 | 0.0 | 0.0 | 0.00 | 0.00 | 0.00 | 58 | 1016.9 |
| 20260508013016 | 17 | 163 | 6.4 | 8.0 | 0.00 | 0.00 | 0.00 | 58 | 1016.9 |
| 20260508012513 | 17 | 116 | 6.4 | 9.7 | 0.00 | 0.00 | 0.00 | 57 | 1017.1 |
| 20260508012011 | 17 | 345 | 0.0 | 1.6 | 0.00 | 0.00 | 0.00 | 59 | 1017.1 |
| 20260508011509 | 18 | 151 | 6.4 | 8.0 | 0.00 | 0.00 | 0.00 | 57 | 1017.0 |
| 20260508011006 | 18 | 287 | 0.0 | 1.6 | 0.00 | 0.00 | 0.00 | 56 | 1017.3 |
| 20260508010502 | 18 | 273 | 3.2 | 3.2 | 0.00 | 0.00 | 0.00 | 55 | 1017.3 |
| 20260508010000 | 18 | 262 | 4.8 | 4.8 | 0.00 | 0.00 | 0.00 | 55 | 1017.4 |
| 20260508005456 | 18 | 319 | 0.0 | 0.0 | 0.00 | 0.00 | 0.00 | 56 | 1017.4 |
| 20260508004953 | 17 | 63 | 3.2 | 3.2 | 0.00 | 0.00 | 0.00 | 57 | 1017.5 |
| 20260508004449 | 18 | 354 | 6.4 | 8.0 | 0.00 | 0.00 | 0.00 | 57 | 1017.4 |
| 20260508003946 | 17 | 346 | 1.6 | 3.2 | 0.00 | 0.00 | 0.00 | 59 | 1017.4 |
| 20260508003443 | 18 | 12 | 6.4 | 8.0 | 0.00 | 0.00 | 0.00 | 58 | 1017.6 |
| 20260508002940 | 18 | 233 | 1.6 | 1.6 | 0.00 | 0.00 | 0.00 | 57 | 1017.7 |
| 20260508002436 | 18 | 297 | 1.6 | 1.6 | 0.00 | 0.00 | 0.00 | 58 | 1017.7 |
| 20260508001932 | 18 | 349 | 1.6 | 3.2 | 0.00 | 0.00 | 0.00 | 57 | 1017.5 |
| 20260508001429 | 18 | 273 | 8.0 | 9.7 | 0.00 | 0.00 | 0.00 | 56 | 1017.8 |
| 20260508000925 | 18 | 261 | 1.6 | 3.2 | 0.00 | 0.00 | 0.00 | 57 | 1017.6 |
| 20260508000421 | 17 | 299 | 3.2 | 4.8 | 0.00 | 0.00 | 0.00 | 60 | 1017.8 |
| 20260507235918 | 17 | 320 | 1.6 | 3.2 | 0.00 | 0.00 | 0.00 | 62 | 1017.7 |
| 20260507235415 | 17 | 256 | 0.0 | 0.0 | 0.00 | 0.00 | 0.00 | 60 | 1017.8 |
| 20260507234912 | 17 | 285 | 3.2 | 4.8 | 0.00 | 0.00 | 0.00 | 61 | 1018.0 |
| 20260507234409 | 17 | 316 | 0.0 | 0.0 | 0.00 | 0.00 | 0.00 | 60 | 1017.8 |
| 20260507233906 | 17 | 283 | 9.7 | 11.3 | 0.00 | 0.00 | 0.00 | 61 | 1017.8 |
| 20260507233403 | 17 | 261 | 8.0 | 9.7 | 0.00 | 0.00 | 0.00 | 60 | 1017.7 |
| 20260507232901 | 17 | 311 | 3.2 | 4.8 | 0.00 | 0.00 | 0.00 | 61 | 1018.0 |
| 20260507232357 | 18 | 284 | 4.8 | 9.7 | 0.00 | 0.00 | 0.00 | 60 | 1017.9 |
| 20260507231855 | 17 | 302 | 6.4 | 9.7 | 0.00 | 0.00 | 0.00 | 61 | 1017.9 |
| 20260507231351 | 17 | 297 | 9.7 | 12.9 | 0.00 | 0.00 | 0.00 | 60 | 1018.0 |
| 20260507230848 | 17 | 296 | 0.0 | 1.6 | 0.00 | 0.00 | 0.00 | 61 | 1018.2 |
| 20260507230345 | 17 | 259 | 6.4 | 11.3 | 0.00 | 0.00 | 0.00 | 61 | 1018.2 |
| 20260507225845 | 16 | 325 | 6.4 | 9.7 | 0.00 | 0.00 | 0.00 | 61 | 1018.1 |
| 20260507225341 | 17 | 301 | 8.0 | 11.3 | 0.00 | 0.00 | 0.00 | 60 | 1018.3 |
| 20260507224837 | 17 | 306 | 4.8 | 8.0 | 0.00 | 0.00 | 0.00 | 61 | 1018.4 |
| 20260507224334 | 17 | 320 | 4.8 | 8.0 | 0.00 | 0.00 | 0.00 | 61 | 1018.5 |
| 20260507223830 | 17 | 257 | 9.7 | 11.3 | 0.00 | 0.00 | 0.00 | 60 | 1018.3 |
| 20260507223326 | 17 | 241 | 6.4 | 9.7 | 0.00 | 0.00 | 0.00 | 60 | 1018.3 |
| 20260507222824 | 17 | 294 | 1.6 | 1.6 | 0.00 | 0.00 | 0.00 | 61 | 1018.5 |
| 20260507222320 | 18 | 303 | 9.7 | 12.9 | 0.00 | 0.00 | 0.00 | 57 | 1018.6 |
| 20260507221817 | 17 | 261 | 6.4 | 9.7 | 0.00 | 0.00 | 0.00 | 59 | 1018.5 |
| 20260507221314 | 18 | 268 | 1.6 | 3.2 | 0.00 | 0.00 | 0.00 | 59 | 1018.5 |
| 20260507220810 | 18 | 295 | 9.7 | 12.9 | 0.00 | 0.00 | 0.00 | 57 | 1018.4 |
| 20260507220308 | 18 | 305 | 8.0 | 9.7 | 0.00 | 0.00 | 0.00 | 56 | 1018.6 |
| 20260507215804 | 18 | 304 | 1.6 | 1.6 | 0.00 | 0.00 | 0.00 | 58 | 1018.6 |
| 20260507215306 | 18 | 305 | 1.6 | 3.2 | 0.00 | 0.00 | 0.00 | 57 | 1018.5 |
| 20260507214759 | 18 | 334 | 4.8 | 8.0 | 0.00 | 0.00 | 0.00 | 58 | 1018.6 |
| 20260507214256 | 17 | 315 | 0.0 | 0.0 | 0.00 | 0.00 | 0.00 | 61 | 1018.9 |
| 20260507213750 | 18 | 243 | 4.8 | 4.8 | 0.00 | 0.00 | 0.00 | 58 | 1018.9 |
| 20260507213248 | 16 | 178 | 3.2 | 4.8 | 0.00 | 0.00 | 0.00 | 63 | 1018.9 |
| 20260507212745 | 17 | 223 | 6.4 | 9.7 | 0.00 | 0.00 | 0.00 | 62 | 1018.7 |
| 20260507212241 | 17 | 264 | 8.0 | 12.9 | 0.00 | 0.00 | 0.00 | 60 | 1019.0 |
| 20260507211737 | 17 | 319 | 1.6 | 1.6 | 0.00 | 0.00 | 0.00 | 60 | 1019.0 |
| 20260507211234 | 17 | 319 | 4.8 | 8.0 | 0.00 | 0.00 | 0.00 | 59 | 1019.0 |
| 20260507210731 | 17 | 290 | 1.6 | 1.6 | 0.00 | 0.00 | 0.00 | 62 | 1019.0 |
| 20260507210228 | 17 | 276 | 4.8 | 8.0 | 0.00 | 0.00 | 0.00 | 61 | 1019.2 |
| 20260507205724 | 16 | 227 | 3.2 | 4.8 | 0.00 | 0.00 | 0.00 | 63 | 1019.3 |
| 20260507205221 | 17 | 298 | 1.6 | 1.6 | 0.00 | 0.00 | 0.00 | 63 | 1019.4 |
| 20260507204717 | 17 | 183 | 4.8 | 4.8 | 0.00 | 0.00 | 0.00 | 62 | 1019.3 |
| 20260507204215 | 17 | 266 | 6.4 | 9.7 | 0.00 | 0.00 | 0.00 | 62 | 1019.4 |
| 20260507203713 | 16 | 273 | 8.0 | 11.3 | 0.00 | 0.00 | 0.00 | 64 | 1019.4 |
| 20260507203210 | 17 | 201 | 1.6 | 3.2 | 0.00 | 0.00 | 0.00 | 61 | 1019.4 |
| 20260507202706 | 15 | 285 | 4.8 | 4.8 | 0.00 | 0.00 | 0.00 | 66 | 1019.5 |
| 20260507202202 | 15 | 348 | 4.8 | 8.0 | 0.00 | 0.00 | 0.00 | 66 | 1019.6 |
| 20260507201657 | 15 | 257 | 4.8 | 4.8 | 0.00 | 0.00 | 0.00 | 68 | 1019.8 |
| 20260507201154 | 15 | 260 | 9.7 | 11.3 | 0.00 | 0.00 | 0.00 | 65 | 1019.7 |
| 20260507200650 | 15 | 267 | 4.8 | 4.8 | 0.00 | 0.00 | 0.00 | 66 | 1019.5 |
| 20260507200146 | 15 | 176 | 3.2 | 3.2 | 0.00 | 0.00 | 0.00 | 67 | 1019.8 |
| 20260507195643 | 16 | 214 | 6.4 | 8.0 | 0.00 | 0.00 | 0.00 | 63 | 1019.8 |
| 20260507195140 | 16 | 107 | 4.8 | 8.0 | 0.00 | 0.00 | 0.00 | 63 | 1019.8 |
| 20260507194637 | 16 | 41 | 3.2 | 3.2 | 0.00 | 0.00 | 0.00 | 64 | 1019.7 |
| 20260507194132 | 16 | 348 | 1.6 | 1.6 | 0.00 | 0.00 | 0.00 | 64 | 1019.8 |
| 20260507193630 | 16 | 261 | 0.0 | 1.6 | 0.00 | 0.00 | 0.00 | 62 | 1020.0 |
| 20260507193127 | 16 | 273 | 0.0 | 1.6 | 0.00 | 0.00 | 0.00 | 65 | 1020.0 |
| 20260507192623 | 16 | 161 | 1.6 | 3.2 | 0.00 | 0.00 | 0.00 | 64 | 1019.9 |
| 20260507192120 | 15 | 304 | 0.0 | 1.6 | 0.00 | 0.00 | 0.00 | 66 | 1019.9 |
| 20260507191616 | 15 | 271 | 1.6 | 4.8 | 0.00 | 0.00 | 0.00 | 67 | 1019.7 |
| 20260507191112 | 15 | 257 | 4.8 | 4.8 | 0.00 | 0.00 | 0.00 | 66 | 1020.0 |
| 20260507190610 | 15 | 297 | 8.0 | 9.7 | 0.00 | 0.00 | 0.00 | 65 | 1020.1 |
| 20260507190109 | 15 | 253 | 4.8 | 4.8 | 0.00 | 0.00 | 0.00 | 68 | 1020.1 |
| 20260507185607 | 15 | 217 | 8.0 | 9.7 | 0.00 | 0.00 | 0.00 | 67 | 1020.1 |
| 20260507185103 | 15 | 229 | 1.6 | 1.6 | 0.00 | 0.00 | 0.00 | 67 | 1020.2 |
| 20260507184601 | 15 | 197 | 4.8 | 4.8 | 0.00 | 0.00 | 0.00 | 65 | 1020.1 |
| 20260507184059 | 15 | 162 | 9.7 | 11.3 | 0.00 | 0.00 | 0.00 | 67 | 1020.2 |
| 20260507183554 | 14 | 125 | 0.0 | 1.6 | 0.00 | 0.00 | 0.00 | 69 | 1020.2 |
| 20260507183052 | 15 | 115 | 4.8 | 8.0 | 0.00 | 0.00 | 0.00 | 68 | 1020.1 |
| 20260507182548 | 14 | 198 | 9.7 | 12.9 | 0.00 | 0.00 | 0.00 | 68 | 1020.0 |
| 20260507182044 | 13 | 172 | 8.0 | 9.7 | 0.00 | 0.00 | 0.00 | 71 | 1020.2 |
| 20260507181541 | 13 | 162 | 11.3 | 11.3 | 0.00 | 0.00 | 0.00 | 73 | 1020.1 |
| 20260507181037 | 15 | 192 | 6.4 | 8.0 | 0.00 | 0.00 | 0.00 | 70 | 1020.1 |
| 20260507180534 | 15 | 224 | 1.6 | 4.8 | 0.00 | 0.00 | 0.00 | 67 | 1020.1 |
| 20260507180031 | 15 | 278 | 3.2 | 4.8 | 0.00 | 0.00 | 0.00 | 70 | 1020.3 |
| 20260507175527 | 15 | 186 | 8.0 | 11.3 | 0.00 | 0.00 | 0.00 | 68 | 1020.2 |
| 20260507175025 | 15 | 197 | 6.4 | 9.7 | 0.00 | 0.00 | 0.00 | 70 | 1020.3 |
| 20260507174521 | 15 | 268 | 9.7 | 12.9 | 0.00 | 0.00 | 0.00 | 69 | 1020.2 |
| 20260507174019 | 15 | 236 | 6.4 | 9.7 | 0.00 | 0.00 | 0.00 | 71 | 1020.5 |
| 20260507173516 | 14 | 237 | 4.8 | 4.8 | 0.00 | 0.00 | 0.00 | 72 | 1020.4 |
| 20260507173014 | 15 | 189 | 8.0 | 9.7 | 0.00 | 0.00 | 0.00 | 71 | 1020.2 |
| 20260507172509 | 14 | 152 | 8.0 | 9.7 | 0.00 | 0.00 | 0.00 | 73 | 1020.5 |
| 20260507172006 | 15 | 264 | 3.2 | 8.0 | 0.00 | 0.00 | 0.00 | 71 | 1020.5 |
| 20260507171502 | 13 | 258 | 4.8 | 8.0 | 0.00 | 0.00 | 0.00 | 75 | 1020.4 |
| 20260507171000 | 13 | 257 | 11.3 | 12.9 | 0.00 | 0.00 | 0.00 | 75 | 1020.4 |
| 20260507170456 | 13 | 229 | 8.0 | 9.7 | 0.00 | 0.00 | 0.00 | 76 | 1020.5 |
| 20260507165952 | 13 | 227 | 4.8 | 4.8 | 0.00 | 0.00 | 0.00 | 76 | 1020.3 |
| 20260507165448 | 13 | 226 | 8.0 | 11.3 | 0.00 | 0.00 | 0.00 | 77 | 1020.2 |
| 20260507164944 | 13 | 230 | 1.6 | 3.2 | 0.00 | 0.00 | 0.00 | 78 | 1020.4 |
| 20260507164441 | 12 | 193 | 4.8 | 4.8 | 0.00 | 0.00 | 0.00 | 80 | 1020.6 |
| 20260507163938 | 12 | 214 | 6.4 | 9.7 | 0.00 | 0.00 | 0.00 | 80 | 1020.6 |
| 20260507163435 | 12 | 197 | 12.9 | 14.5 | 0.00 | 0.00 | 0.00 | 78 | 1020.6 |
| 20260507162932 | 12 | 204 | 6.4 | 8.0 | 0.00 | 0.00 | 0.00 | 79 | 1020.6 |
| 20260507162427 | 12 | 201 | 8.0 | 11.3 | 0.00 | 0.00 | 0.00 | 80 | 1020.4 |
| 20260507161925 | 12 | 187 | 4.8 | 4.8 | 0.00 | 0.00 | 0.00 | 79 | 1020.5 |
| 20260507161421 | 12 | 238 | 6.4 | 8.0 | 0.00 | 0.00 | 0.00 | 80 | 1020.3 |
| 20260507160918 | 12 | 252 | 4.8 | 8.0 | 0.00 | 0.00 | 0.00 | 81 | 1020.7 |
| 20260507160414 | 12 | 275 | 8.0 | 9.7 | 0.00 | 0.00 | 0.00 | 79 | 1020.6 |
| 20260507155910 | 12 | 238 | 1.6 | 3.2 | 0.00 | 0.00 | 0.00 | 81 | 1020.6 |
| 20260507155406 | 12 | 260 | 1.6 | 1.6 | 0.00 | 0.00 | 0.00 | 81 | 1020.5 |
| 20260507154903 | 12 | 270 | 3.2 | 3.2 | 0.00 | 0.00 | 0.00 | 82 | 1020.6 |
| 20260507154400 | 11 | 204 | 4.8 | 4.8 | 0.00 | 0.00 | 0.00 | 84 | 1020.7 |
| 20260507153857 | 11 | 259 | 4.8 | 4.8 | 0.00 | 0.00 | 0.00 | 84 | 1021.0 |
| 20260507153353 | 11 | 236 | 4.8 | 4.8 | 0.00 | 0.00 | 0.00 | 84 | 1020.7 |
| 20260507152850 | 12 | 234 | 4.8 | 8.0 | 0.00 | 0.00 | 0.00 | 84 | 1020.7 |
| 20260507152347 | 12 | 273 | 3.2 | 4.8 | 0.00 | 0.00 | 0.00 | 84 | 1020.7 |
| 20260507151843 | 11 | 285 | 1.6 | 3.2 | 0.00 | 0.00 | 0.00 | 86 | 1020.7 |
| 20260507151339 | 11 | 268 | 4.8 | 8.0 | 0.00 | 0.00 | 0.00 | 86 | 1020.7 |
| 20260507150836 | 11 | 260 | 3.2 | 3.2 | 0.00 | 0.00 | 0.00 | 86 | 1020.7 |
| 20260507150333 | 11 | 267 | 9.7 | 11.3 | 0.00 | 0.00 | 0.00 | 86 | 1020.6 |
| 20260507145829 | 10 | 246 | 4.8 | 4.8 | 0.00 | 0.00 | 0.00 | 87 | 1020.6 |
| 20260507145325 | 11 | 238 | 4.8 | 8.0 | 0.00 | 0.00 | 0.00 | 87 | 1020.5 |
| 20260507144823 | 11 | 275 | 8.0 | 9.7 | 0.00 | 0.00 | 0.00 | 87 | 1020.6 |
| 20260507144320 | 11 | 254 | 6.4 | 8.0 | 0.00 | 0.00 | 0.00 | 88 | 1020.6 |
| 20260507143816 | 10 | 273 | 3.2 | 3.2 | 0.00 | 0.00 | 0.00 | 89 | 1020.8 |
| 20260507143314 | 10 | 263 | 0.0 | 1.6 | 0.00 | 0.00 | 0.00 | 90 | 1020.6 |
| 20260507142809 | 10 | 231 | 1.6 | 1.6 | 0.00 | 0.00 | 0.00 | 90 | 1020.4 |
| 20260507142307 | 10 | 243 | 3.2 | 4.8 | 0.00 | 0.00 | 0.00 | 90 | 1020.7 |
| 20260507141803 | 10 | 210 | 3.2 | 3.2 | 0.00 | 0.00 | 0.00 | 90 | 1020.6 |
| 20260507141300 | 10 | 201 | 6.4 | 8.0 | 0.00 | 0.00 | 0.00 | 90 | 1020.5 |
| 20260507140756 | 10 | 234 | 1.6 | 1.6 | 0.00 | 0.00 | 0.00 | 90 | 1020.4 |
| 20260507140253 | 10 | 286 | 1.6 | 1.6 | 0.00 | 0.00 | 0.00 | 90 | 1020.4 |
| 20260507135750 | 10 | 276 | 1.6 | 3.2 | 0.00 | 0.00 | 0.00 | 90 | 1020.4 |
| 20260507135248 | 10 | 242 | 1.6 | 3.2 | 0.00 | 0.00 | 0.00 | 90 | 1020.6 |
| 20260507134744 | 10 | 258 | 1.6 | 1.6 | 0.00 | 0.00 | 0.00 | 90 | 1020.4 |
| 20260507134241 | 10 | 249 | 4.8 | 8.0 | 0.00 | 0.00 | 0.00 | 91 | 1020.5 |
| 20260507133736 | 10 | 271 | 1.6 | 1.6 | 0.00 | 0.00 | 0.00 | 91 | 1020.3 |
| 20260507133233 | 10 | 270 | 3.2 | 3.2 | 0.00 | 0.00 | 0.00 | 91 | 1020.2 |
| 20260507132731 | 10 | 252 | 4.8 | 8.0 | 0.00 | 0.00 | 0.00 | 91 | 1020.5 |
| 20260507132227 | 10 | 262 | 3.2 | 3.2 | 0.00 | 0.00 | 0.00 | 91 | 1020.4 |
| 20260507131724 | 10 | 251 | 4.8 | 4.8 | 0.00 | 0.00 | 0.00 | 91 | 1020.3 |
| 20260507131221 | 10 | 282 | 3.2 | 3.2 | 0.00 | 0.00 | 0.00 | 90 | 1020.5 |
| 20260507130718 | 10 | 278 | 3.2 | 4.8 | 0.00 | 0.00 | 0.00 | 90 | 1020.1 |
| 20260507130216 | 10 | 291 | 1.6 | 1.6 | 0.00 | 0.00 | 0.00 | 90 | 1020.4 |
| 20260507125714 | 10 | 279 | 0.0 | 0.0 | 0.00 | 0.00 | 0.00 | 90 | 1020.6 |
| 20260507125212 | 10 | 269 | 0.0 | 0.0 | 0.00 | 0.00 | 0.00 | 90 | 1020.4 |
| 20260507124708 | 10 | 267 | 0.0 | 1.6 | 0.00 | 0.00 | 0.00 | 90 | 1020.3 |
| 20260507124205 | 10 | 267 | 0.0 | 0.0 | 0.00 | 0.00 | 0.00 | 89 | 1020.3 |
| 20260507123703 | 10 | 264 | 1.6 | 1.6 | 0.00 | 0.00 | 0.00 | 89 | 1020.3 |
| 20260507123200 | 10 | 258 | 3.2 | 3.2 | 0.00 | 0.00 | 0.00 | 89 | 1020.5 |
| 20260507122655 | 10 | 249 | 1.6 | 1.6 | 0.00 | 0.00 | 0.00 | 89 | 1020.6 |
| 20260507122151 | 10 | 250 | 0.0 | 0.0 | 0.00 | 0.00 | 0.00 | 89 | 1020.5 |
| 20260507121648 | 10 | 247 | 0.0 | 0.0 | 0.00 | 0.00 | 0.00 | 89 | 1020.5 |
| 20260507121144 | 10 | 247 | 0.0 | 0.0 | 0.00 | 0.00 | 0.00 | 89 | 1020.6 |
| 20260507120640 | 10 | 235 | 0.0 | 0.0 | 0.00 | 0.00 | 0.00 | 89 | 1020.5 |
| 20260507120137 | 10 | 235 | 0.0 | 0.0 | 0.00 | 0.00 | 0.00 | 89 | 1020.6 |
| 20260507115633 | 10 | 233 | 1.6 | 1.6 | 0.00 | 0.00 | 0.00 | 88 | 1020.5 |
| 20260507115128 | 10 | 204 | 6.4 | 8.0 | 0.00 | 0.00 | 0.00 | 89 | 1020.5 |
| 20260507114625 | 10 | 236 | 1.6 | 1.6 | 0.00 | 0.00 | 0.00 | 88 | 1020.5 |
| 20260507114122 | 10 | 227 | 0.0 | 1.6 | 0.00 | 0.00 | 0.00 | 88 | 1020.4 |
| 20260507113619 | 10 | 198 | 6.4 | 8.0 | 0.00 | 0.00 | 0.00 | 88 | 1020.6 |
| 20260507113116 | 10 | 217 | 4.8 | 4.8 | 0.00 | 0.00 | 0.00 | 88 | 1020.7 |
| 20260507112614 | 10 | 211 | 6.4 | 8.0 | 0.00 | 0.00 | 0.00 | 88 | 1020.7 |
| 20260507112111 | 10 | 183 | 9.7 | 11.3 | 0.00 | 0.00 | 0.00 | 88 | 1020.8 |
| 20260507111608 | 10 | 203 | 3.2 | 3.2 | 0.00 | 0.00 | 0.00 | 87 | 1021.0 |
| 20260507111104 | 10 | 207 | 8.0 | 9.7 | 0.00 | 0.00 | 0.00 | 87 | 1020.8 |
| 20260507110601 | 10 | 206 | 6.4 | 8.0 | 0.00 | 0.00 | 0.00 | 88 | 1020.7 |
| 20260507110057 | 10 | 196 | 4.8 | 4.8 | 0.00 | 0.00 | 0.00 | 87 | 1020.9 |
| 20260507105554 | 10 | 214 | 4.8 | 4.8 | 0.00 | 0.00 | 0.00 | 87 | 1020.9 |
| 20260507105050 | 11 | 174 | 6.4 | 9.7 | 0.00 | 0.00 | 0.00 | 88 | 1020.9 |
| 20260507104548 | 11 | 211 | 4.8 | 4.8 | 0.00 | 0.00 | 0.00 | 88 | 1020.9 |
| 20260507104044 | 11 | 196 | 6.4 | 8.0 | 0.00 | 0.00 | 0.00 | 88 | 1020.9 |
| 20260507103540 | 11 | 206 | 4.8 | 4.8 | 0.00 | 0.00 | 0.00 | 88 | 1020.9 |
| 20260507103037 | 11 | 216 | 1.6 | 1.6 | 0.00 | 0.00 | 0.00 | 88 | 1021.1 |
| 20260507102534 | 11 | 225 | 0.0 | 0.0 | 0.00 | 0.00 | 0.00 | 88 | 1021.0 |
| 20260507102031 | 11 | 198 | 6.4 | 8.0 | 0.00 | 0.00 | 0.00 | 88 | 1021.1 |
| 20260507101525 | 11 | 174 | 8.0 | 9.7 | 0.00 | 0.00 | 0.00 | 88 | 1021.0 |
| 20260507101022 | 11 | 202 | 3.2 | 3.2 | 0.00 | 0.00 | 0.00 | 88 | 1020.9 |
| 20260507100519 | 11 | 185 | 8.0 | 8.0 | 0.00 | 0.00 | 0.00 | 88 | 1021.0 |
| 20260507100017 | 11 | 176 | 8.0 | 11.3 | 0.00 | 0.00 | 0.00 | 88 | 1021.0 |
| 20260507095515 | 11 | 167 | 4.8 | 4.8 | 0.00 | 0.00 | 0.00 | 88 | 1021.1 |
| 20260507095011 | 11 | 201 | 4.8 | 4.8 | 0.00 | 0.00 | 0.00 | 89 | 1021.2 |
| 20260507094508 | 11 | 199 | 4.8 | 8.0 | 0.00 | 0.00 | 0.00 | 89 | 1021.1 |
| 20260507094005 | 10 | 223 | 0.0 | 1.6 | 0.00 | 0.00 | 0.00 | 89 | 1021.1 |
| 20260507093502 | 10 | 202 | 4.8 | 4.8 | 0.00 | 0.00 | 0.00 | 89 | 1021.1 |
| 20260507093001 | 10 | 210 | 3.2 | 3.2 | 0.00 | 0.00 | 0.00 | 90 | 1021.1 |
| 20260507092456 | 10 | 202 | 1.6 | 4.8 | 0.00 | 0.00 | 0.00 | 90 | 1020.9 |
| 20260507091953 | 10 | 206 | 3.2 | 4.8 | 0.00 | 0.00 | 0.00 | 90 | 1020.9 |
| 20260507091450 | 10 | 207 | 1.6 | 1.6 | 0.00 | 0.00 | 0.00 | 90 | 1021.0 |
| 20260507090946 | 10 | 276 | 0.0 | 0.0 | 0.00 | 0.00 | 0.00 | 90 | 1020.8 |
| 20260507090442 | 10 | 191 | 4.8 | 4.8 | 0.00 | 0.00 | 0.00 | 90 | 1021.1 |
| 20260507085939 | 10 | 214 | 1.6 | 3.2 | 0.00 | 0.00 | 0.00 | 90 | 1021.0 |
| 20260507085436 | 10 | 251 | 1.6 | 3.2 | 0.00 | 0.00 | 0.00 | 90 | 1021.0 |
| 20260507084933 | 10 | 271 | 3.2 | 3.2 | 0.00 | 0.00 | 0.00 | 90 | 1021.3 |
| 20260507084430 | 10 | 255 | 0.0 | 1.6 | 0.00 | 0.00 | 0.00 | 91 | 1021.1 |
| 20260507083927 | 10 | 215 | 0.0 | 0.0 | 0.00 | 0.00 | 0.00 | 91 | 1021.0 |
| 20260507083423 | 10 | 194 | 9.7 | 11.3 | 0.00 | 0.00 | 0.00 | 91 | 1021.0 |